This demonstration page uses our WeatherBlox Daily Observations layout. Learn more.

Left ArrowRight Arrow

39.92423, -83.80882

Hourly Observations for February 27, 2021

Temp ( °F °C ) Dew Point ( °F °C ) Humidity (%) Winds ( mph kmh ) Pressure ( in mb ) Visibility ( mi km ) Precip ( " mm )
12:56 am 00:56 Cloudy with Light Rain 40 4.4 40 4.4 100 100 SSE 10 17 29.98 1015 5 8 0.00 0.00
1:56 am 01:56 Cloudy 41 5 41 5 100 100 SSE 14 22 29.94 1014 7 11 0.00 0.00
2:38 am 02:38 Cloudy 41 5 41 5 100 100 SSE 10 17 29.93 1014 9 14 0.00 0.00
2:56 am 02:56 Cloudy 42 5.6 42 5.6 100 100 S 12 19 29.91 1013 10 16 0.00 0.00
3:56 am 03:56 Cloudy 42 5.6 42 5.6 100 100 SSE 8 13 29.89 1012 9 14 0.00 0.00
4:56 am 04:56 Cloudy 43 6.1 43 6.1 100 100 S 7 11 29.91 1013 7 11 0.00 0.00
5:09 am 05:09 Cloudy with Light Rain 43 6 43 6 100 100 S 8 13 29.92 1013 7 11 0.00 0.00
5:56 am 05:56 Cloudy with Light Rain 44 6.7 44 6.7 100 100 SSW 6 9 29.93 1014 4 6 0.00 0.00
6:56 am 06:56 Cloudy with Mist and Fog 45 7.2 45 7.2 100 100 WSW 12 19 29.96 1015 5 8 0.00 0.00
7:39 am 07:39 Cloudy 45 7 45 7 100 100 WNW 16 26 29.99 1016 10 16 0.00 0.00
7:56 am 07:56 Cloudy with Mist and Fog 44 6.7 44 6.7 100 100 WNW 15 24 30.01 1016 5 8 0.00 0.00
8:56 am 08:56 Cloudy 43 6.1 43 6.1 100 100 NW 13 20 30.05 1018 9 14 0.00 0.00
9:56 am 09:56 Mostly Cloudy 45 7.2 44 6.7 97 97 WNW 9 15 30.07 1018 10 16 0.00 0.00
10:56 am 10:56 Cloudy 44 6.7 43 6.1 96 96 WNW 10 17 30.11 1020 10 16 0.00 0.00
11:10 am 11:10 Cloudy 45 7 43 6 93 93 NW 8 13 30.11 1020 10 16 0.00 0.00
11:56 am 11:56 Cloudy 47 8.3 43 6.1 86 86 W 6 9 30.12 1020 10 16 0.00 0.00
12:31 pm 12:31 Mostly Cloudy 48 9 45 7 87 87 W 8 13 30.12 1020 10 16 0.00 0.00
12:56 pm 12:56 Mostly Cloudy 50 10 45 7.2 83 83 W 8 13 30.12 1020 10 16 0.00 0.00
1:07 pm 13:07 Partly Cloudy 52 11 45 7 77 77 W 8 13 30.12 1020 10 16 0.00 0.00
1:43 pm 13:43 Mostly Cloudy 52 11 45 7 77 77 NW 8 13 30.12 1020 10 16 0.00 0.00
1:56 pm 13:56 Partly Cloudy 51 10.6 44 6.7 77 77 VRB 6 9 30.12 1020 10 16 0.00 0.00
2:56 pm 14:56 Sunny 52 11.1 45 7.2 77 77 W 6 9 30.13 1020 10 16 0.00 0.00
3:56 pm 15:56 Sunny 53 11.7 44 6.7 72 72 Calm 30.15 1021 10 16 0.00 0.00
4:56 pm 16:56 Sunny 53 11.7 44 6.7 72 72 NE 3 6 30.16 1022 10 16 0.00 0.00
5:56 pm 17:56 Sunny 49 9.4 45 7.2 86 86 ENE 6 9 30.16 1021 10 16 0.00 0.00
6:56 pm 18:56 Clear 42 5.6 42 5.6 100 100 E 7 11 30.17 1022 9 14 0.00 0.00
7:56 pm 19:56 Clear 42 5.6 42 5.6 100 100 ESE 7 11 30.21 1023 7 11 0.00 0.00
8:56 pm 20:56 Clear 42 5.6 42 5.6 100 100 E 7 11 30.20 1023 7 11 0.00 0.00
9:56 pm 21:56 Clear 43 6.1 43 6.1 100 100 E 9 15 30.16 1021 10 16 0.00 0.00
10:56 pm 22:56 Clear 42 5.6 42 5.6 100 100 ESE 9 15 30.14 1021 10 16 0.00 0.00
11:56 pm 23:56 Clear 42 5.6 42 5.6 100 100 E 10 17 30.11 1020 9 14 0.00 0.00

Powered by AerisWeather